Location: Ladrillo (historical)
(32.8195°N, 117.2231°W)
Time: 00:36:35
(UTC+00:00)

Courier 1B - Pass Details

Date: 09 March 2021
Orbit: 963 x 1209 km, 28.3° (Epoch: 15 April)

Event Time Altitude Azimuth Distance (km) Brightness Sun altitude
Rises 14:16:09 0° 254° (WSW) 3,740 10.0 1.2°
Reaches altitude 10° 14:18:56 10° 250° (WSW) 2,759 9.3 1.8°
Maximum altitude 14:25:24 56° 174° (S) 1,137 8.1 3.1°
Drops below altitude 10° 14:31:42 10° 97° (E) 2,686 12.9 4.5°
Sets 14:34:22 0° 93° (E) 3,634 13.3 5.0°
